Home > Weather > Palestine > Past weeks

Flag for USA Past Weather in Palestine, Texas, USA — Yesterday and Last 2 Weeks

Now
86 °F

Sunny.


Feels Like: 89 °F
Forecast: 71 / 85 °F
Wind: 5 mph from South

Location: Palestine Municipal Airport

Current Time: May 30, 2016 at 5:29:36 PM

Latest Report: May 30, 2016 at 4:55 PM


Visibility: 10 mi

Pressure: 29.93 "Hg

Humidity: 54%

Dew Point: 67 °F

Location of PalestineLocation

Past Weather in Palestine — Graph

°F

Palestine Temperature Yesterday

Maximum temperature yesterday: 89 °F (at 4:35 PM)
Minimum temperature yesterday: 72 °F (at 5:55 AM)
Average temperature yesterday: 79 °F

High & Low Weather Summary for the Past Weeks

 TemperatureHumidityPressure
High89 °F (May 29, 4:35 PM)100% (May 19, 2:15 PM)30.15 "Hg (May 19, 2:15 PM)
Low59 °F (May 19, 6:35 AM)50% (May 21, 4:35 PM)29.67 "Hg (May 27, 6:15 AM)
Average73 °F84%29.98 "Hg
* Reported May 15 4:15 PM — May 30 4:15 PM, Palestine, Weather by CustomWeather, © 2016

Note: Actual official high and low records may vary slightly from our data, if they occured in-between our weather recording intervals... More about our weather records

Advertising

Palestine Weather History for the Previous 24 Hours

Scroll right to see more
 ConditionsComfort  
Time TempWeatherWind HumidityBarometerVisibility
4:15 PM
Mon, May 30
86 °FSunny.5 mph56%29.95 "Hg10 mi
3:55 PM86 °FScattered clouds.6 mph55%29.96 "Hg10 mi
3:35 PM86 °FBroken clouds.7 mph57%29.97 "Hg10 mi
3:15 PM85 °FScattered clouds.5 mph62%29.98 "Hg10 mi
2:55 PM84 °FPartly sunny.6 mph62%29.98 "Hg10 mi
2:35 PM84 °FScattered clouds.5 mph64%29.99 "Hg10 mi
2:15 PM83 °FScattered clouds.9 mph63%29.99 "Hg10 mi
1:55 PM82 °FBroken clouds.8 mph67%30.00 "Hg10 mi
1:35 PM82 °FScattered clouds.8 mph67%30.00 "Hg10 mi
1:15 PM83 °FScattered clouds.8 mph66%30.00 "Hg10 mi
12:55 PM81 °FScattered clouds.7 mph70%30.00 "Hg10 mi
12:15 PM81 °FScattered clouds.7 mph71%30.00 "Hg10 mi
11:15 AM78 °FScattered clouds.7 mph82%30.01 "Hg10 mi
10:55 AM78 °FSunny.3 mph84%30.02 "Hg10 mi
10:35 AM76 °FSunny.No wind86%30.03 "Hg10 mi
10:15 AM76 °FSunny.No wind88%30.03 "Hg10 mi
9:55 AM75 °FSunny.6 mph90%30.00 "Hg10 mi
9:35 AM75 °FSunny.3 mph91%30.02 "Hg10 mi
9:15 AM74 °FSunny.3 mph93%30.02 "Hg10 mi
8:55 AM72 °FScattered clouds.9 mph97%29.99 "Hg7 mi
8:35 AM72 °FSunny.10 mph99%29.99 "Hg7 mi
8:15 AM72 °FSunny.7 mph99%30.03 "Hg7 mi
7:55 AM72 °FScattered clouds.6 mph100%30.03 "Hg7 mi
7:35 AM71 °FScattered clouds.6 mph100%30.02 "Hg7 mi
7:15 AM71 °FClear.3 mph100%30.03 "Hg7 mi
6:55 AM71 °FClear.3 mph98%30.05 "Hg7 mi
6:15 AM72 °FPartly cloudy.3 mph96%30.07 "Hg10 mi
5:55 AM71 °FClear.6 mph97%30.06 "Hg10 mi
5:35 AM71 °FClear.No wind97%30.04 "Hg10 mi
5:15 AM71 °FClear.No wind97%30.03 "Hg10 mi
4:55 AM72 °FPassing clouds.No wind93%30.03 "Hg10 mi
4:15 AM72 °FPassing clouds.No wind91%30.03 "Hg10 mi
3:55 AM73 °FPassing clouds.No wind90%30.03 "Hg10 mi
3:35 AM73 °FClear.3 mph91%30.05 "Hg10 mi
3:15 AM73 °FPassing clouds.3 mph88%30.04 "Hg10 mi
2:55 AM74 °FPassing clouds.No wind88%30.03 "Hg10 mi
2:15 AM73 °FClear.5 mph91%30.03 "Hg10 mi
1:55 AM74 °FClear.3 mph90%30.04 "Hg10 mi
1:35 AM74 °FClear.3 mph87%30.04 "Hg10 mi
1:15 AM75 °FClear.5 mph85%30.04 "Hg10 mi
12:55 AM76 °FClear.5 mph84%30.04 "Hg10 mi
12:35 AM76 °FClear.5 mph84%30.04 "Hg10 mi
12:15 AM75 °FClear.6 mph86%30.05 "Hg10 mi
11:55 PM
Sun, May 29
75 °FClear.5 mph85%30.06 "Hg10 mi
11:35 PM76 °FClear.5 mph87%30.06 "Hg10 mi
11:15 PM76 °FClear.3 mph85%30.05 "Hg10 mi
10:55 PM76 °FClear.3 mph87%30.07 "Hg10 mi
10:15 PM76 °FClear.3 mph87%30.07 "Hg10 mi
9:55 PM77 °FClear.3 mph85%30.06 "Hg10 mi
9:15 PM76 °FSunny.5 mph91%30.03 "Hg10 mi
8:55 PM78 °FSunny.No wind84%30.04 "Hg10 mi
8:35 PM80 °FSunny.No wind79%30.03 "Hg10 mi
8:15 PM82 °FSunny.No wind73%30.02 "Hg10 mi
7:55 PM84 °FSunny.3 mph67%30.01 "Hg10 mi
7:15 PM85 °FSunny.5 mph64%30.01 "Hg10 mi
6:55 PM86 °FSunny.5 mph63%30.01 "Hg10 mi
6:35 PM87 °FSunny.6 mph62%30.01 "Hg10 mi
6:15 PM86 °FSunny.3 mph64%30.03 "Hg10 mi
5:55 PM86 °FScattered clouds.5 mph64%30.03 "Hg10 mi
5:35 PM87 °FBroken clouds.6 mph64%30.03 "Hg10 mi
5:15 PM85 °FBroken clouds.5 mph66%30.04 "Hg10 mi
Weather by CustomWeather, © 2016

See weather overviewHow to use our weather pages